RH
6 3 2 2 2 2 2 3 9 21 28 28 18 22 24 19 15 11 7 9 11 15 14 14 15 15 14 13 13 13 14 15 15 14 12 10 12 11 11 9 8 9 9 9 9 9 11
8 7 4 3 2 2 2 2 2 8 18 29 29 21 23 22 17 14 9 8 10 14 17 15 14 16 17 17 17 15 15 16 18 18 17 16 15 14 13 12 12 13 14 13 16 18 20
8 8 8 5 3 3 3 3 2 3 9 22 30 28 26 24 20 16 13 8 9 13 15 17 17 18 20 18 18 16 16 17 19 19 18 17 15 15 15 16 17 17 16 21 20 27 23
8 8 8 8 7 4 4 5 5 3 3 9 24 29 28 24 24 19 16 12 9 11 13 17 19 19 20 20 19 18 18 20 20 19 17 17 18 19 18 19 20 19 24 27 28 28 28
8 8 8 9 8 8 6 5 6 6 4 2 7 26 29 26 25 24 19 14 11 10 10 12 12 16 20 21 20 20 20 21 21 20 19 20 21 21 20 20 26 27 29 29 28 28 26
9 8 7 8 9 9 8 8 6 6 7 6 2 8 26 30 28 26 23 20 16 15 13 11 11 16 18 22 23 23 22 22 22 21 20 22 22 22 22 22 30 30 30 30 28 25 26
9 10 9 8 7 8 9 8 8 8 8 8 8 2 11 27 32 28 27 24 20 20 20 16 15 18 18 23 24 24 24 23 22 22 21 23 24 25 23 23 28 25 25 24 25 24 24
17 10 10 10 9 8 7 8 9 8 8 9 9 9 3 15 29 33 31 28 25 22 23 19 15 18 23 26 26 25 25 24 24 23 23 26 25 26 25 25 24 23 23 23 24 26 26
60 40 18 10 10 10 8 8 8 9 9 9 10 8 9 3 13 30 34 34 33 29 24 23 21 21 26 27 27 27 25 25 27 27 27 27 28 28 27 28 28 27 28 28 28 28 27
61 61 60 48 16 10 10 10 9 8 8 9 8 8 9 9 7 18 32 35 36 34 27 26 25 26 26 28 29 28 28 27 29 30 30 29 31 30 29 30 30 30 31 31 31 32 33
50 58 58 62 66 28 14 10 11 10 9 9 9 9 9 9 9 6 26 35 36 32 49 29 29 25 24 25 29 30 31 31 30 32 32 29 30 30 32 33 33 32 32 34 35 40 45
59 53 52 67 58 64 66 64 24 11 11 11 9 9 10 10 8 9 21 38 36 29 29 30 26 25 25 28 30 31 32 33 33 33 33 34 35 34 34 35 35 36 38 37 42 51 52
4 38 56 56 60 51 62 68 60 30 12 12 11 10 9 9 9 10 21 38 29 31 27 31 28 26 26 30 32 34 34 35 33 33 33 34 34 35 36 37 36 41 40 37 59 70 57
2 3 8 47 67 49 62 60 65 50 31 27 16 10 10 8 8 8 29 34 31 30 28 30 28 29 30 32 35 35 36 37 35 34 34 36 41 40 38 38 42 46 40 40 57 71 63
1 2 5 8 34 72 56 50 56 51 41 48 29 14 10 9 7 8 27 33 26 24 27 31 34 33 32 33 37 38 39 38 36 35 35 36 40 43 42 43 47 45 43 44 48 53 63
1 1 2 3 8 35 79 53 32 75 60 30 27 16 11 10 8 8 23 30 23 21 24 28 32 31 33 34 37 40 39 37 39 38 37 38 42 44 46 50 45 46 49 52 51 70 78
1 1 1 2 6 27 60 84 58 48 70 71 31 14 14 12 10 8 12 11 11 15 21 34 29 30 31 36 38 39 40 38 37 39 41 42 44 52 54 50 50 52 56 60 59 57 78
5 4 3 2 2 22 61 94 87 58 49 32 48 18 23 16 14 10 8 7 7 9 13 21 25 29 34 37 40 42 41 41 41 42 45 46 56 56 53 54 60 63 66 69 58 62 55
7 7 6 15 12 5 51 99 100 100 70 46 41 37 24 19 19 15 10 9 9 9 14 20 20 24 33 39 45 44 41 44 45 46 50 52 61 65 71 67 68 73 69 69 65 68 70
7 11 9 14 26 13 25 97 100 100 98 92 62 36 25 39 49 18 16 15 14 11 11 16 22 26 34 39 43 41 46 47 49 52 55 62 64 60 53 55 59 66 65 72 77 79 76
8 19 14 10 19 38 39 57 94 99 99 100 94 51 34 27 31 48 19 24 17 13 14 16 24 26 34 41 42 49 48 53 53 58 65 73 72 68 63 69 76 74 77 80 87 85 88
8 30 39 13 17 60 56 99 100 99 99 99 100 78 45 31 22 30 23 18 13 13 22 15 18 16 35 39 37 39 42 52 56 61 73 80 77 74 69 75 80 73 65 66 77 87 90
18 18 98 37 32 53 61 59 77 100 98 98 99 100 78 40 30 27 24 23 15 14 16 17 14 36 37 33 50 55 58 62 64 68 74 82 85 88 87 81 92 75 30 41 45 49 50
28 16 18 83 60 53 74 85 71 98 97 98 98 98 100 68 41 28 25 24 22 21 22 20 20 18 33 53 60 62 70 72 77 81 86 86 88 96 84 81 97 42 42 43 44 50 56
9 16 14 61 65 78 62 99 100 97 97 97 98 98 99 98 57 36 34 32 26 22 29 24 33 43 53 59 68 84 89 92 91 92 90 94 100 96 92 83 73 48 41 46 53 53 57
16 19 22 31 77 83 74 97 98 100 97 96 96 98 98 99 90 47 34 32 32 28 30 27 45 66 71 72 77 85 84 85 78 93 81 98 100 100 100 98 94 52 52 57 60 67 56
74 21 15 28 72 83 93 93 97 99 99 95 94 97 97 98 98 90 44 33 31 29 27 29 49 72 74 81 79 84 87 75 71 62 56 83 99 99 100 96 87 73 70 74 80 63 73
89 81 22 25 48 84 96 79 95 98 98 96 92 97 97 98 98 82 79 42 34 32 30 36 52 79 80 86 89 88 87 80 79 65 56 55 69 91 100 100 96 60 69 72 68 78 96
81 87 65 26 50 80 98 86 90 96 96 95 88 95 97 97 97 97 88 57 48 40 38 38 42 40 43 71 83 84 84 91 81 78 62 73 62 60 68 57 63 66 75 83 88 89 98
Wind_Speed
7 8 8 9 10 11 12 13 13 14 12 8 3 1 2 3 4 6 6 6 7 6 5 5 6 6 5 5 6 7 6 5 4 4 4 5 4 5 5 6 6 6 5 4 5 5 5
6 7 8 8 8 10 10 11 13 13 13 11 7 4 3 4 5 6 7 8 8 7 5 6 6 4 5 5 6 7 7 6 5 4 6 6 6 6 6 6 6 6 6 5 5 4 6
6 6 8 7 8 9 10 10 10 12 13 12 10 6 4 4 5 6 7 7 8 8 6 5 5 5 4 5 6 6 6 4 3 4 5 6 7 6 6 6 6 5 6 4 6 2 5
9 8 8 9 8 7 9 9 10 10 11 12 10 9 4 4 5 6 7 7 8 8 7 7 5 4 4 5 7 7 6 5 5 5 5 6 6 6 6 6 7 6 5 4 5 7 5
12 11 10 10 10 9 8 9 9 10 10 10 11 8 6 3 5 5 7 8 9 10 9 9 8 7 7 6 6 6 6 6 6 7 7 6 5 5 7 8 6 7 5 6 6 6 8
15 14 13 13 12 12 10 10 9 9 10 10 10 10 8 5 3 5 7 8 9 10 10 11 9 8 8 7 7 7 7 6 7 8 8 6 5 6 8 10 6 8 7 7 7 6 12
18 18 16 15 14 13 13 12 11 10 9 9 10 9 8 7 5 5 6 8 9 10 12 12 8 9 9 8 7 7 8 8 8 9 9 8 8 8 8 8 8 8 8 8 8 12 15
20 19 20 19 18 16 14 14 14 12 11 10 9 9 8 7 6 6 7 8 9 11 11 12 13 12 9 8 8 8 8 8 9 10 10 9 9 9 8 7 7 8 9 9 11 11 17
24 23 22 21 21 19 18 16 15 15 14 13 11 10 9 8 8 7 7 9 10 11 12 13 13 14 12 11 10 9 10 9 9 10 10 10 8 11 9 8 8 9 10 10 12 16 19
36 33 28 25 23 22 21 20 18 16 15 15 14 13 11 10 9 8 8 9 10 10 9 11 14 15 14 12 11 12 12 11 11 10 10 10 12 11 10 10 10 10 9 11 15 14 7
34 39 39 35 31 24 22 22 22 20 18 16 15 15 14 12 10 9 8 9 9 7 3 5 12 14 14 15 10 12 12 12 11 10 11 8 9 11 11 10 10 8 10 14 16 16 13
33 34 38 47 40 36 32 28 26 24 22 19 17 16 16 15 12 10 9 8 9 5 8 6 8 11 15 15 14 12 12 13 12 12 13 14 12 11 11 10 9 8 11 14 13 10 3
34 36 39 39 43 45 40 36 31 28 25 22 20 17 17 16 15 12 10 10 8 8 6 7 10 11 13 15 15 15 15 15 13 10 14 13 14 14 11 11 9 9 7 4 3 2 4
39 38 39 41 42 41 52 47 40 35 31 25 23 20 18 17 17 15 13 16 12 9 14 8 7 9 14 14 16 17 17 18 18 17 12 11 7 13 11 12 8 10 7 4 5 3 4
47 45 42 41 43 44 44 47 44 41 37 36 28 25 22 20 19 19 18 23 14 16 17 17 14 15 17 18 16 15 19 20 19 18 11 11 9 12 11 12 10 6 8 7 5 7 3
52 50 48 46 43 44 45 44 42 47 40 36 31 29 25 23 23 22 25 30 22 22 22 17 15 11 11 18 18 14 15 12 21 19 18 11 7 14 14 13 13 11 9 6 5 2 5
55 55 53 49 47 44 45 45 44 39 41 41 34 30 28 25 24 28 33 34 32 30 24 19 21 19 20 18 19 20 12 13 16 16 18 14 13 9 14 13 14 14 15 10 7 6 4
45 48 51 50 48 47 44 42 44 39 39 38 38 34 30 27 28 33 36 34 33 32 27 28 27 23 24 21 21 21 21 18 14 17 18 16 10 10 13 15 16 17 17 15 8 7 9
42 40 42 43 41 46 43 41 42 35 36 35 37 39 33 27 33 35 35 35 36 34 30 27 28 26 26 25 18 22 24 23 21 18 11 16 11 5 3 13 19 20 20 19 21 17 19
38 40 38 37 37 38 41 38 38 36 34 35 34 35 40 39 44 37 36 38 37 34 33 31 32 29 28 28 28 15 22 20 22 22 22 17 18 16 12 7 8 14 17 19 22 18 20
35 35 36 36 33 33 36 37 38 36 31 37 42 41 37 23 44 44 44 38 37 38 36 33 32 33 30 30 29 32 28 22 22 24 24 20 20 20 21 21 21 25 27 27 34 36 26
34 32 34 36 34 31 34 37 34 42 43 38 43 46 40 40 39 29 36 47 42 39 32 35 36 31 33 31 31 26 30 28 25 24 27 26 18 16 21 19 23 32 33 34 38 37 42
31 34 28 34 34 33 33 36 41 41 39 28 44 43 42 43 43 41 43 36 35 41 42 36 30 27 31 30 30 28 24 17 22 21 23 25 20 12 9 14 15 26 22 23 27 20 23
32 31 34 32 36 36 35 34 39 41 39 34 25 41 44 53 47 47 43 39 38 35 30 27 26 33 31 28 30 26 25 21 23 24 22 23 22 16 13 14 5 12 11 14 16 19 20
32 32 33 34 37 35 38 35 35 38 44 36 37 31 40 55 49 47 44 36 34 34 33 31 29 26 27 26 28 24 22 22 27 28 29 28 27 17 8 16 22 27 26 29 29 21 20
32 33 34 38 36 41 42 35 28 34 39 44 33 34 38 46 56 47 44 44 41 34 32 32 30 28 29 29 32 24 17 17 12 12 32 37 31 28 17 8 6 5 8 10 17 28 15
34 33 35 37 39 38 39 47 31 30 35 38 37 28 22 36 56 46 47 48 41 42 37 35 32 33 33 36 33 31 22 21 15 18 16 28 30 34 31 18 19 23 24 22 12 14 10
35 36 35 35 40 38 30 45 40 30 33 33 40 33 27 33 38 52 47 46 43 42 41 37 35 40 37 38 38 25 23 29 28 28 27 26 20 24 27 16 19 19 18 20 16 19 29
33 38 38 33 34 40 27 35 39 34 32 32 42 40 32 30 26 41 46 42 43 39 35 40 40 34 32 30 36 28 25 20 33 28 33 28 33 21 21 19 19 19 20 29 32 33 32
Wind_Direction
8 13 14 19 16 21 24 27 27 24 19 8 347 266 221 201 183 177 173 158 154 148 156 158 148 140 148 166 175 176 174 171 178 191 193 213 216 226 217 208 210 219 215 216 209 223 243
341 346 350 1 4 4 17 21 22 22 17 16 3 317 254 227 214 202 191 186 179 175 179 184 183 182 178 186 190 187 181 177 185 193 195 214 204 216 207 198 203 204 208 204 216 226 253
311 318 323 334 346 347 355 7 17 19 18 16 15 356 298 245 235 224 219 209 198 192 188 185 188 192 197 204 200 191 189 191 209 206 200 199 192 200 206 201 195 193 185 217 208 283 265
295 293 298 309 316 326 331 344 356 9 12 12 15 10 348 278 240 233 226 228 218 213 213 206 215 219 220 196 193 195 196 202 202 213 201 196 200 200 196 203 186 188 208 235 230 282 272
286 292 291 287 294 300 308 317 332 343 357 1 3 8 2 322 277 248 236 226 230 244 237 231 232 243 230 214 210 211 211 206 203 199 200 206 217 209 198 188 188 202 227 239 280 273 281
277 281 285 286 285 287 289 297 305 318 330 346 352 354 354 340 294 267 249 238 246 250 247 254 246 239 239 223 219 218 222 215 218 207 209 219 222 219 217 214 228 225 230 251 268 281 294
277 277 277 279 279 280 280 282 287 295 305 319 332 343 343 337 318 278 255 252 249 252 255 249 245 242 244 233 237 230 217 219 212 208 218 230 229 228 224 225 229 239 245 247 270 292 302
289 281 278 275 278 280 276 275 276 279 283 290 302 317 329 329 314 294 274 261 257 267 267 258 249 248 231 232 234 230 226 214 210 215 221 228 228 222 222 229 240 246 252 261 285 292 306
288 292 285 279 275 274 277 276 273 272 275 280 284 293 304 315 310 294 283 269 263 266 269 257 247 242 235 233 238 234 226 222 222 228 228 227 232 224 231 240 251 255 262 270 283 300 304
279 280 281 287 280 276 274 273 273 271 270 272 276 279 286 295 300 296 288 273 263 265 271 258 235 234 234 234 236 228 222 224 223 232 232 237 234 228 243 246 255 269 270 280 295 304 297
283 276 281 277 279 279 276 278 274 270 269 267 270 273 273 277 286 290 280 270 256 248 331 234 227 229 222 223 229 221 222 227 232 231 233 240 226 230 249 249 251 261 273 291 295 295 294
276 278 272 273 279 274 276 278 280 273 269 266 264 267 268 269 271 274 265 248 240 218 253 231 219 221 219 219 224 229 226 228 232 236 239 242 241 240 248 244 249 263 292 297 288 283 266
281 276 274 275 265 275 274 277 276 274 269 268 265 261 263 260 260 258 249 226 209 222 235 238 233 230 220 222 225 230 233 230 223 215 229 233 241 247 240 239 243 267 285 290 322 311 228
274 272 275 273 273 270 269 272 274 271 267 267 267 262 257 255 251 245 230 210 215 240 225 228 230 232 228 224 229 231 232 235 231 230 232 222 236 225 224 222 246 265 228 211 235 233 277
273 271 268 268 269 269 269 267 270 269 268 265 264 261 256 252 245 240 223 210 229 245 248 246 244 242 236 229 228 229 237 240 235 231 215 214 220 210 219 236 244 226 217 217 250 274 310
267 266 265 263 263 265 266 266 263 262 266 269 262 258 252 248 242 235 228 230 234 242 247 246 248 239 232 232 225 221 230 242 234 230 225 223 220 221 237 238 224 230 226 222 217 185 256
260 262 262 260 257 256 257 261 260 255 264 263 267 259 254 246 241 238 231 236 244 245 246 244 252 245 246 238 229 227 236 238 227 221 216 220 224 230 223 229 233 220 219 222 228 221 196
258 260 262 261 255 252 250 254 256 255 248 256 257 254 252 249 239 239 239 240 245 249 249 249 251 249 245 244 238 231 236 233 231 225 224 223 228 227 232 239 239 235 233 229 210 210 224
263 260 261 264 261 253 248 242 253 253 255 248 245 254 245 238 244 242 246 244 242 247 247 246 247 245 242 241 232 239 240 242 239 229 224 221 221 196 239 240 239 236 241 235 229 247 242
264 263 261 259 263 257 252 241 240 241 245 252 247 247 242 238 240 247 244 245 244 246 249 248 248 245 243 238 234 244 233 235 234 226 228 222 236 232 231 243 232 235 247 237 238 238 240
269 265 261 258 260 257 255 251 233 233 223 248 248 241 237 236 234 237 241 242 250 246 243 244 242 239 241 235 237 233 237 231 229 223 224 227 249 250 253 254 261 262 261 257 249 251 236
276 269 266 259 256 257 250 243 243 235 223 225 238 242 237 237 238 234 235 237 240 241 239 240 242 246 241 239 243 248 241 239 234 233 227 233 248 258 263 257 262 270 265 258 253 255 260
280 273 284 263 258 251 252 247 241 234 230 222 237 242 243 241 237 237 238 239 241 243 244 245 247 251 244 242 238 242 249 234 235 243 242 237 245 251 264 282 289 283 277 252 252 254 269
294 281 266 272 255 252 246 249 246 238 240 215 209 235 241 243 235 236 237 238 239 244 249 246 245 241 240 237 236 238 240 234 233 236 239 241 241 242 269 282 241 270 246 230 250 278 270
300 286 277 264 258 253 241 243 243 253 249 239 211 214 234 242 242 237 237 237 239 239 237 239 238 239 236 232 224 225 225 233 235 239 244 246 245 239 242 244 274 270 254 260 262 264 274
305 291 291 260 261 252 241 243 249 248 259 248 242 218 223 239 239 239 236 234 234 235 235 232 232 231 230 220 210 212 209 218 214 215 235 238 237 237 227 242 244 263 245 256 264 278 280
302 297 295 268 261 260 253 247 254 251 257 261 245 235 231 238 241 240 236 236 232 232 235 234 228 227 227 222 220 218 217 219 216 220 224 222 227 228 231 243 266 268 261 259 251 284 278
292 299 296 279 260 259 264 248 249 250 254 268 255 248 258 234 248 238 237 237 233 229 231 229 225 225 224 219 223 223 227 228 231 236 237 237 226 223 225 230 260 270 250 244 265 277 300
289 290 296 283 261 260 268 253 250 254 266 259 261 260 258 266 260 245 234 236 237 235 231 230 235 236 230 223 226 226 227 222 230 232 239 231 234 238 223 260 265 262 273 289 275 287 295